Weather History for Durant, OK

Change the Weather History Date:

Thursday, February 21, 2013

  Actual Average (KADM) Record (KADM)
Temperature  
Mean Temperature 45 °F -  
Max Temperature 57 °F 55 °F 77 °F (2005)
Min Temperature 33 °F 37 °F 24 °F (2014)
Degree Days  
Heating Degree Days 20    
Moisture  
Dew Point 36 °F    
Average Humidity 79    
Maximum Humidity 100    
Minimum Humidity 41    
Precipitation  
Precipitation 0.27 in - - ()
Sea Level Pressure  
Sea Level Pressure 29.77 in    
Wind  
Wind Speed 14 mph (ENE)    
Max Wind Speed 22 mph    
Max Gust Speed 31 mph    
Visibility 10 miles    
Events Rain , Thunderstorm    
Averages and records for this station are not official NWS values.
T = Trace of Precipitation, MM = Missing Value Source: NWS Daily Summary

Daily Weather History Graph

Daily Weather History Graph

Search for Another Location

Airport:

Trip Planner

Search our weather history database for the weather conditions in past years. The results will help you decide how hot, cold, wet, or windy it might be!

Date:

Astronomy

Feb. 21, 2013 Rise Set
Actual Time 7:03 AM CST 6:15 PM CST
Civil Twilight 6:38 AM CST 6:40 PM CST
Nautical Twilight 6:08 AM CST 7:09 PM CST
Astronomical Twilight 5:40 AM CST 7:38 PM CST
Moon 2:38 PM CST (2/21) 4:01 AM CST (2/21)
Length of Visible Light 12h 02m
Length of Day
11h 12m
Waxing Gibbous, 84% of the Moon is Illuminated
Feb 21
Waxing Gibbous
Feb 25
Full
Mar 4
Last Quarter
Mar 11
New
Mar 19
First Quarter

Hourly Weather History & Observations

Time (CST) Temp. Windchill Dew Point Humidity Pressure Visibility Wind Dir Wind Speed Gust Speed Precip Events Conditions
12:15 AM 35.6 °F 25.9 °F 32.0 °F 87% 29.87 in 10.0 mi East 16.1 mph 24.2 mph N/A   Overcast
12:35 AM 35.6 °F 25.2 °F 32.0 °F 87% 29.86 in 10.0 mi East 18.4 mph - N/A   Overcast
12:55 AM 35.6 °F 25.5 °F 32.0 °F 87% 29.85 in 10.0 mi East 17.3 mph 21.9 mph N/A   Overcast
1:15 AM 33.8 °F 22.5 °F 32.0 °F 93% 29.85 in 10.0 mi East 19.6 mph 24.2 mph N/A   Overcast
1:35 AM 35.6 °F 24.8 °F 32.0 °F 87% 29.84 in 10.0 mi East 19.6 mph - N/A   Overcast
1:55 AM 35.6 °F 25.5 °F 32.0 °F 87% 29.84 in 10.0 mi ESE 17.3 mph 23.0 mph N/A Rain Rain
2:15 AM 33.8 °F 24.8 °F 32.0 °F 93% 29.84 in 10.0 mi East 12.7 mph 23.0 mph N/A   Light Drizzle
2:35 AM 35.6 °F 25.9 °F 32.0 °F 87% 29.83 in 10.0 mi ESE 16.1 mph 24.2 mph N/A   Overcast
2:55 AM 35.6 °F 25.9 °F 32.0 °F 87% 29.81 in 10.0 mi ESE 16.1 mph 21.9 mph N/A   Overcast
3:15 AM 35.6 °F 25.2 °F 32.0 °F 87% 29.80 in 10.0 mi ESE 18.4 mph 23.0 mph N/A Rain Light Rain
3:35 AM 35.6 °F 25.2 °F 32.0 °F 87% 29.77 in 10.0 mi ESE 18.4 mph 25.3 mph N/A   Drizzle
3:55 AM 35.6 °F 25.9 °F 32.0 °F 87% 29.75 in 10.0 mi ESE 16.1 mph - N/A   Overcast
4:15 AM 35.6 °F 24.2 °F 33.8 °F 93% 29.73 in 10.0 mi ESE 21.9 mph - N/A   Overcast
4:35 AM 35.6 °F 24.8 °F 33.8 °F 93% 29.73 in 10.0 mi ESE 19.6 mph - N/A   Overcast
4:55 AM 37.4 °F 26.6 °F 32.0 °F 81% 29.71 in 10.0 mi ESE 21.9 mph 27.6 mph N/A   Overcast
5:15 AM 37.4 °F 26.9 °F 32.0 °F 81% 29.70 in 10.0 mi ESE 20.7 mph 31.1 mph N/A   Overcast
5:35 AM 37.4 °F 26.9 °F 32.0 °F 81% 29.70 in 10.0 mi ESE 20.7 mph 28.8 mph N/A   Overcast
5:55 AM 37.4 °F 26.9 °F 33.8 °F 87% 29.68 in 10.0 mi SE 20.7 mph 25.3 mph N/A   Overcast
6:15 AM 37.4 °F 27.8 °F 33.8 °F 87% 29.69 in 10.0 mi ESE 17.3 mph 27.6 mph N/A   Overcast
6:35 AM 37.4 °F 27.2 °F 33.8 °F 87% 29.68 in 10.0 mi ESE 19.6 mph 23.0 mph N/A   Overcast
6:55 AM 37.4 °F 28.2 °F 33.8 °F 87% 29.68 in 10.0 mi ESE 16.1 mph 23.0 mph N/A   Overcast
7:15 AM 37.4 °F 27.2 °F 33.8 °F 87% 29.67 in 10.0 mi SE 19.6 mph - N/A   Overcast
7:35 AM 39.2 °F 29.6 °F 33.8 °F 81% 29.66 in 10.0 mi SE 19.6 mph 26.5 mph N/A   Overcast
7:55 AM 39.2 °F 29.3 °F 33.8 °F 81% 29.66 in 7.0 mi SE 20.7 mph - N/A   Light Drizzle
8:15 AM 37.4 °F 33.8 °F 35.6 °F 93% 29.77 in 7.0 mi WNW 4.6 mph 9.2 mph N/A Thunderstorm Overcast
8:35 AM 37.4 °F 32.1 °F 35.6 °F 93% 29.80 in 2.0 mi WNW 6.9 mph - 0.07 in Rain , Thunderstorm Rain
8:55 AM 37.4 °F 32.8 °F 35.6 °F 93% 29.83 in 2.5 mi NW 5.8 mph - 0.20 in Rain , Thunderstorm Heavy Thunderstorms and Rain
9:15 AM 37.4 °F 31.4 °F 35.6 °F 93% 29.80 in 2.5 mi NNE 8.1 mph - 0.06 in Rain Rain
9:35 AM 37.4 °F 30.8 °F 37.4 °F 100% 29.77 in 5.0 mi ENE 9.2 mph - 0.07 in Rain Light Rain
9:55 AM 37.4 °F 29.8 °F 37.4 °F 100% 29.75 in 7.0 mi ENE 11.5 mph - 0.07 in Thunderstorm Overcast
10:15 AM 37.4 °F 28.9 °F 37.4 °F 100% 29.74 in 10.0 mi East 13.8 mph - N/A   Overcast
10:35 AM 39.2 °F 31.6 °F 37.4 °F 93% 29.73 in 10.0 mi East 12.7 mph - N/A   Overcast
10:55 AM 41.0 °F 32.8 °F 41.0 °F 100% 29.72 in 10.0 mi East 16.1 mph - N/A   Mostly Cloudy
11:15 AM 42.8 °F 35.8 °F 39.2 °F 87% 29.72 in 10.0 mi East 13.8 mph - N/A   Mostly Cloudy
11:35 AM 42.8 °F 36.6 °F 41.0 °F 93% 29.72 in 10.0 mi East 11.5 mph - N/A   Overcast
11:55 AM 44.6 °F 39.7 °F 42.8 °F 93% 29.72 in 10.0 mi SE 9.2 mph - N/A   Overcast
12:15 PM 44.6 °F 39.2 °F 42.8 °F 93% 29.72 in 10.0 mi SE 10.4 mph - N/A   Overcast
12:35 PM 44.6 °F 40.7 °F 42.8 °F 93% 29.72 in 10.0 mi SSE 6.9 mph - N/A   Overcast
12:55 PM 46.4 °F 41.5 °F 42.8 °F 87% 29.70 in 10.0 mi SSE 10.4 mph - N/A   Overcast
1:15 PM 46.4 °F 42.9 °F 42.8 °F 87% 29.70 in 10.0 mi SSE 6.9 mph - N/A   Mostly Cloudy
1:35 PM 50.0 °F - 44.6 °F 82% 29.70 in 10.0 mi SSW 10.4 mph 17.3 mph N/A   Mostly Cloudy
1:55 PM 50.0 °F - 44.6 °F 82% 29.68 in 10.0 mi SW 11.5 mph 16.1 mph N/A   Mostly Cloudy
2:15 PM 51.8 °F - 42.8 °F 71% 29.68 in 10.0 mi SW 4.6 mph - N/A   Mostly Cloudy
2:35 PM 53.6 °F - 42.8 °F 67% 29.68 in 10.0 mi WSW 8.1 mph - N/A   Mostly Cloudy
2:55 PM 55.4 °F - 44.6 °F 67% 29.68 in 10.0 mi WSW 12.7 mph - N/A   Mostly Cloudy
3:15 PM 55.4 °F - 42.8 °F 63% 29.68 in 10.0 mi West 10.4 mph - N/A   Scattered Clouds
3:35 PM 57.2 °F - 39.2 °F 51% 29.69 in 10.0 mi West 19.6 mph 24.2 mph N/A   Clear
3:55 PM 57.2 °F - 33.8 °F 41% 29.70 in 10.0 mi West 12.7 mph 25.3 mph N/A   Clear
4:35 PM 57.2 °F - 33.8 °F 41% 29.72 in 10.0 mi West 12.7 mph 21.9 mph N/A   Clear
4:55 PM 57.2 °F - 35.6 °F 44% 29.72 in 10.0 mi NW 9.2 mph 16.1 mph N/A   Clear
5:15 PM 57.2 °F - 35.6 °F 44% 29.73 in 10.0 mi WNW 8.1 mph - N/A   Clear
5:35 PM 55.4 °F - 35.6 °F 47% 29.75 in 10.0 mi NW 8.1 mph - N/A   Clear
5:55 PM 55.4 °F - 37.4 °F 51% 29.75 in 10.0 mi NW 5.8 mph - N/A   Clear
6:15 PM 53.6 °F - 37.4 °F 54% 29.75 in 10.0 mi NNW 3.5 mph - N/A   Clear
6:35 PM 50.0 °F - 37.4 °F 62% 29.76 in 10.0 mi NNW 4.6 mph - N/A   Clear
6:55 PM 48.2 °F - 37.4 °F 66% 29.77 in 10.0 mi North 4.6 mph - N/A   Clear
7:15 PM 46.4 °F 45.2 °F 37.4 °F 71% 29.79 in 10.0 mi NE 3.5 mph - N/A   Clear
7:35 PM 46.4 °F 44.3 °F 37.4 °F 71% 29.81 in 10.0 mi WNW 4.6 mph - N/A   Scattered Clouds
7:55 PM 46.4 °F 41.9 °F 37.4 °F 71% 29.83 in 10.0 mi NNW 9.2 mph - N/A   Scattered Clouds
8:15 PM 46.4 °F 42.4 °F 37.4 °F 71% 29.85 in 10.0 mi NNW 8.1 mph - N/A   Clear
8:35 PM 46.4 °F 41.1 °F 37.4 °F 71% 29.87 in 10.0 mi NNW 11.5 mph - N/A   Clear
8:55 PM 44.6 °F 38.1 °F 37.4 °F 76% 29.88 in 10.0 mi NNW 13.8 mph 18.4 mph N/A   Clear
9:15 PM 44.6 °F 39.2 °F 37.4 °F 76% 29.90 in 10.0 mi NNW 10.4 mph - N/A   Clear
9:35 PM 42.8 °F 36.2 °F 35.6 °F 76% 29.91 in 10.0 mi NNW 12.7 mph - N/A   Clear
9:55 PM 42.8 °F 36.2 °F 35.6 °F 76% 29.93 in 10.0 mi NNW 12.7 mph - N/A   Clear
10:15 PM 41.0 °F 34.3 °F 33.8 °F 76% 29.94 in 10.0 mi NNW 11.5 mph 16.1 mph N/A   Clear
10:35 PM 41.0 °F 34.7 °F 33.8 °F 76% 29.95 in 10.0 mi NNW 10.4 mph - N/A   Clear
10:55 PM 39.2 °F 34.2 °F 32.0 °F 75% 29.95 in 10.0 mi NNW 6.9 mph - N/A   Clear
11:15 PM 37.4 °F 30.8 °F 32.0 °F 81% 29.95 in 10.0 mi NNW 9.2 mph - N/A   Clear
11:35 PM 37.4 °F 32.8 °F 32.0 °F 81% 29.95 in 10.0 mi NNW 5.8 mph - N/A   Clear
11:55 PM 37.4 °F 31.4 °F 32.0 °F 81% 29.95 in 10.0 mi NNW 8.1 mph - N/A   Clear